{"data":{"norad_id":67555,"epoch":"2026-05-24T23:04:55.515360Z","epoch_age_seconds":81901,"freshness":"FRESH","line1":"1 67555U 26014Z   26144.96175365  .00012282  00000+0  38204-3 0  9994","line2":"2 67555  97.2865  32.0307 0001618  91.6198 268.5230 15.33452524 20464","mean_motion":15.33452524,"eccentricity":0.0001618,"inclination_deg":97.2865,"raan_deg":32.0307,"arg_perigee_deg":91.6198,"mean_anomaly_deg":268.523,"bstar":0.00038204,"rev_number":2046,"period_min":93.905743898988,"perigee_km":464.41348460908,"apogee_km":466.62809226942,"semimajor_km":6843.6577884392,"source":"CELESTRAK","updated_at":"2026-05-25T13:38:21.611905Z"}}